N8QQ Weather Reports


Display with metric or nautical units.
time (UTC)temp
F
wind
direction
speed
MPH
gust
MPH
rain 1hr
in
rain 24hr
in
rain mn
in
humidity
%
barometer
mb
20260508222018 68 190 2.0 5.0 0.00 0.00 0.00 48 1004.4
20260508221023 68 118 1.0 2.0 0.00 0.00 0.00 48 1004.4
20260508220026 68 300 0.0 2.0 0.00 0.00 0.00 49 1004.3
20260508215028 68 157 0.0 2.0 0.00 0.00 0.00 47 1004.3
20260508214032 68 212 1.0 4.0 0.00 0.00 0.00 46 1004.4
20260508213017 69 235 3.0 5.0 0.00 0.00 0.00 46 1004.4
20260508212020 69 181 1.0 3.0 0.00 0.00 0.00 46 1004.5
20260508211043 70 152 2.0 5.0 0.00 0.00 0.00 44 1004.7
20260508210026 71 236 2.0 4.0 0.00 0.00 0.00 45 1004.8
20260508205029 68 196 1.0 3.0 0.00 0.00 0.00 47 1005.3
20260508204107 68 130 2.0 4.0 0.00 0.00 0.00 46 1005.3
20260508203017 69 205 4.0 8.0 0.00 0.00 0.00 45 1005.6
20260508202020 69 190 1.0 3.0 0.00 0.00 0.00 46 1005.6
20260508201018 69 191 3.0 6.0 0.00 0.00 0.00 45 1005.7
20260508200027 70 298 1.0 4.0 0.00 0.00 0.00 46 1005.7
20260508195031 69 131 2.0 7.0 0.00 0.00 0.00 45 1005.8
20260508194054 68 249 2.0 5.0 0.00 0.00 0.00 43 1005.9
20260508193039 69 225 4.0 6.0 0.00 0.00 0.00 42 1005.9
20260508192021 70 146 2.0 4.0 0.00 0.00 0.00 44 1006.2
20260508191046 72 152 3.0 4.0 0.00 0.00 0.00 43 1006.2
20260508190028 73 206 3.0 6.0 0.00 0.00 0.00 42 1006.3
20260508185030 74 182 3.0 6.0 0.00 0.00 0.00 43 1006.4
20260508184017 74 112 4.0 5.0 0.00 0.00 0.00 41 1006.6
20260508183100 74 213 3.0 5.0 0.00 0.00 0.00 42 1006.9
20260508182023 73 211 2.0 4.0 0.00 0.00 0.00 43 1007.1
20260508181025 72 214 3.0 7.0 0.00 0.00 0.00 42 1007.2
20260508180028 74 126 2.0 5.0 0.00 0.00 0.00 42 1007.3
20260508175031 73 153 1.0 4.0 0.00 0.00 0.00 45 1007.3
20260508174058 70 220 3.0 6.0 0.00 0.00 0.00 45 1007.4
20260508173019 70 254 3.0 8.0 0.00 0.00 0.00 45 1007.8
20260508172023 71 7 3.0 6.0 0.00 0.00 0.00 45 1008.0
20260508171026 71 183 3.0 5.0 0.00 0.00 0.00 45 1008.2
20260508170023 71 260 5.0 8.0 0.00 0.00 0.00 44 1008.4
20260508165020 72 211 4.0 7.0 0.00 0.00 0.00 47 1008.7
20260508164017 71 217 3.0 5.0 0.00 0.00 0.00 45 1008.9
20260508163020 71 183 2.0 4.0 0.00 0.00 0.00 48 1009.0
20260508162024 71 192 2.0 6.0 0.00 0.00 0.00 48 1009.0
20260508161027 70 132 2.0 6.0 0.00 0.00 0.00 47 1009.1
20260508160030 70 147 2.0 4.0 0.00 0.00 0.00 49 1009.2
20260508155015 69 82 3.0 5.0 0.00 0.00 0.00 48 1009.4
20260508154038 70 246 2.0 4.0 0.00 0.00 0.00 48 1009.5
20260508153021 68 38 2.0 5.0 0.00 0.00 0.00 50 1009.6
20260508152024 67 217 3.0 7.0 0.00 0.00 0.00 50 1009.6
20260508151108 67 191 3.0 7.0 0.00 0.00 0.00 51 1009.7
20260508150031 67 228 3.0 7.0 0.00 0.00 0.00 50 1009.7
20260508145016 65 146 3.0 6.0 0.00 0.00 0.00 49 1009.8
20260508144019 66 188 3.0 5.0 0.00 0.00 0.00 51 1009.8
20260508143022 66 223 3.0 9.0 0.00 0.00 0.00 51 1010.0
20260508142025 64 222 4.0 6.0 0.00 0.00 0.00 50 1010.0
20260508141028 63 194 3.0 7.0 0.00 0.00 0.00 51 1010.0
20260508140032 64 248 4.0 8.0 0.00 0.00 0.00 50 1010.1
20260508135017 63 203 4.0 7.0 0.00 0.00 0.00 51 1010.1
20260508134020 62 195 3.0 6.0 0.00 0.00 0.00 51 1010.1
20260508133023 61 192 4.0 6.0 0.00 0.00 0.00 52 1010.0
20260508132020 61 213 3.0 6.0 0.00 0.00 0.00 52 1010.0
20260508131018 60 168 4.0 8.0 0.00 0.00 0.00 53 1010.0
20260508130033 61 89 3.0 7.0 0.00 0.00 0.00 51 1010.0
20260508125027 59 180 3.0 7.0 0.00 0.00 0.00 54 1010.0
20260508124030 56 125 2.0 3.0 0.00 0.00 0.00 58 1009.8
20260508123016 53 275 2.0 4.0 0.00 0.00 0.00 62 1010.0
20260508122019 51 179 2.0 3.0 0.00 0.00 0.00 64 1009.8
20260508121024 50 175 2.0 5.0 0.00 0.00 0.00 66 1009.8
20260508120019 49 174 2.0 6.0 0.00 0.00 0.00 67 1009.8
20260508115016 49 261 0.0 2.0 0.00 0.00 0.00 68 1009.9
20260508114031 49 202 0.0 1.0 0.00 0.00 0.00 67 1009.7
20260508113016 49 239 0.0 2.0 0.00 0.00 0.00 67 1009.5
20260508112039 49 217 1.0 2.0 0.00 0.00 0.00 66 1009.2
20260508111023 49 218 1.0 4.0 0.00 0.00 0.00 65 1009.2
20260508110026 49 141 0.0 2.0 0.00 0.00 0.00 66 1009.2
20260508105029 49 201 1.0 3.0 0.00 0.00 0.00 66 1009.5
20260508104032 49 116 1.0 3.0 0.00 0.00 0.00 66 1009.4
20260508103016 49 245 1.0 4.0 0.00 0.00 0.00 66 1009.2
20260508102020 49 186 1.0 4.0 0.00 0.00 0.00 67 1009.1
20260508101023 49 163 1.0 3.0 0.00 0.00 0.00 66 1009.2
20260508100027 49 210 1.0 3.0 0.00 0.00 0.00 67 1009.4
20260508095029 49 204 0.0 2.0 0.00 0.00 0.00 68 1009.4
20260508094032 48 198 1.0 5.0 0.00 0.00 0.00 68 1009.2
20260508093018 48 196 0.0 2.0 0.00 0.00 0.00 69 1009.2
20260508092022 47 116 0.0 2.0 0.00 0.00 0.00 70 1009.3
20260508091024 47 192 1.0 5.0 0.00 0.00 0.00 70 1009.3
20260508090027 46 150 0.0 4.0 0.00 0.00 0.00 71 1009.2
20260508085024 46 126 0.0 2.0 0.00 0.00 0.00 72 1009.2
20260508084015 45 0.0 0.0 0.00 0.00 0.00 73 1009.1
20260508083018 45 0.0 0.0 0.00 0.00 0.00 74 1009.4
20260508082015 45 0.0 0.0 0.00 0.00 0.00 73 1009.3
20260508081024 45 0.0 0.0 0.00 0.00 0.00 73 1009.1
20260508080028 45 0.0 0.0 0.00 0.00 0.00 73 1009.0
20260508075031 45 146 0.0 2.0 0.00 0.00 0.00 73 1009.2
20260508074016 45 0.0 0.0 0.00 0.00 0.00 73 1008.9
20260508073020 45 202 0.0 1.0 0.00 0.00 0.00 73 1009.0
20260508072022 45 164 0.0 1.0 0.00 0.00 0.00 72 1009.2
20260508071025 45 180 1.0 4.0 0.00 0.00 0.00 73 1009.3
20260508070048 44 164 0.0 3.0 0.00 0.00 0.00 74 1009.4
20260508065032 45 0.0 0.0 0.00 0.00 0.00 74 1009.5
20260508064017 45 0.0 0.0 0.00 0.00 0.00 74 1009.8
20260508063040 45 0.0 0.0 0.00 0.00 0.00 73 1009.9
20260508062043 44 202 0.0 3.0 0.00 0.00 0.00 73 1010.1
20260508061026 44 0.0 0.0 0.00 0.00 0.00 72 1010.1
20260508060029 45 0.0 0.0 0.00 0.00 0.00 71 1010.0
20260508055053 45 0.0 0.0 0.00 0.00 0.00 71 1010.0
20260508054023 45 0.0 0.0 0.00 0.00 0.00 70 1010.1
20260508053021 46 202 0.0 1.0 0.00 0.00 0.00 69 1010.1
20260508052045 45 0.0 0.0 0.00 0.00 0.00 70 1010.0
20260508051022 45 0.0 0.0 0.00 0.00 0.00 69 1009.8
20260508050019 46 0.0 0.0 0.00 0.00 0.00 69 1009.7
20260508045016 46 0.0 0.0 0.00 0.00 0.00 69 1009.9
20260508044019 46 0.0 0.0 0.00 0.00 0.00 69 1010.0
20260508043018 46 157 0.0 1.0 0.00 0.00 0.00 69 1009.9
20260508042039 46 0.0 1.0 0.00 0.00 0.00 69 1009.8
20260508041022 46 0.0 0.0 0.00 0.00 0.00 69 1009.6
20260508040026 45 0.0 0.0 0.00 0.00 0.00 71 1009.6
20260508035028 45 0.0 0.0 0.00 0.00 0.00 73 1009.6
20260508034031 44 0.0 0.0 0.00 0.00 0.00 74 1009.9
20260508033016 44 0.0 0.0 0.00 0.00 0.00 75 1009.8
20260508032100 44 0.0 0.0 0.00 0.00 0.00 76 1009.8
20260508031043 44 0.0 0.0 0.00 0.00 0.00 78 1009.7
20260508030026 45 0.0 0.0 0.00 0.00 0.00 78 1009.7
20260508025110 45 0.0 0.0 0.00 0.00 0.00 78 1009.8
20260508024032 45 0.0 0.0 0.00 0.00 0.00 77 1009.8
20260508023018 45 0.0 0.0 0.00 0.00 0.00 78 1009.6
20260508022041 45 0.0 0.0 0.00 0.00 0.00 76 1009.8
20260508021024 46 0.0 0.0 0.00 0.00 0.00 76 1009.7
20260508020028 47 0.0 0.0 0.00 0.00 0.00 75 1009.6
20260508015024 47 0.0 0.0 0.00 0.00 0.00 73 1009.9
20260508014016 48 0.0 0.0 0.00 0.00 0.00 69 1009.7
20260508013019 49 0.0 0.0 0.00 0.00 0.00 66 1009.6
20260508012036 50 0.0 0.0 0.00 0.00 0.00 64 1009.5
20260508011025 51 0.0 0.0 0.00 0.00 0.00 61 1009.4
20260508010028 52 0.0 0.0 0.00 0.00 0.00 58 1009.4
20260508005051 53 0.0 0.0 0.00 0.00 0.00 57 1009.4
20260508004036 54 157 0.0 1.0 0.00 0.00 0.00 52 1009.4
20260508003019 55 0.0 0.0 0.00 0.00 0.00 49 1009.2
20260508002023 56 221 0.0 2.0 0.00 0.00 0.00 47 1009.2
20260508001027 57 191 0.0 2.0 0.00 0.00 0.00 45 1009.2
20260508000050 58 225 0.0 2.0 0.00 0.00 0.00 45 1009.2
20260507235033 58 204 2.0 3.0 0.00 0.00 0.00 43 1009.0
20260507234038 59 180 0.0 1.0 0.00 0.00 0.00 42 1009.1
20260507233101 60 223 1.0 2.0 0.00 0.00 0.00 42 1009.0
20260507232024 60 249 1.0 3.0 0.00 0.00 0.00 41 1009.0
20260507231027 61 159 1.0 2.0 0.00 0.00 0.00 41 1009.0
20260507230031 62 212 1.0 4.0 0.00 0.00 0.00 39 1009.0
20260507225016 63 187 1.0 3.0 0.00 0.00 0.00 41 1009.1
20260507224042 62 188 2.0 5.0 0.00 0.00 0.00 40 1008.9
20260507223023 62 258 1.0 3.0 0.00 0.00 0.00 40 1009.0